Data supplied by UK-AIR on 9/6/2008
All Data GMT hour ending 
Status: R =Ratified P=Provisional,P*=As supplied
,,Lerwick,,,,,,,,,,,,,,,,,,,,,,,
Date,time,"Ozone",status,unit
 
01-01-2007,01:00,76,R,ugm-3
01-01-2007,02:00,80,R,ugm-3
01-01-2007,03:00,82,R,ugm-3
01-01-2007,04:00,80,R,ugm-3
01-01-2007,05:00,80,R,ugm-3
01-01-2007,06:00,78,R,ugm-3
01-01-2007,07:00,74,R,ugm-3
01-01-2007,08:00,74,R,ugm-3
01-01-2007,09:00,72,R,ugm-3
01-01-2007,10:00,74,R,ugm-3
01-01-2007,11:00,76,R,ugm-3
01-01-2007,12:00,76,R,ugm-3
01-01-2007,13:00,76,R,ugm-3
01-01-2007,14:00,76,R,ugm-3
01-01-2007,15:00,76,R,ugm-3
01-01-2007,16:00,76,R,ugm-3
01-01-2007,17:00,76,R,ugm-3
01-01-2007,18:00,78,R,ugm-3
01-01-2007,19:00,76,R,ugm-3
01-01-2007,20:00,76,R,ugm-3
01-01-2007,21:00,76,R,ugm-3
01-01-2007,22:00,74,R,ugm-3
01-01-2007,23:00,76,R,ugm-3
01-01-2007,24:00,74,R,ugm-3
02-01-2007,01:00,74,R,ugm-3
02-01-2007,02:00,74,R,ugm-3
02-01-2007,03:00,74,R,ugm-3
02-01-2007,04:00,74,R,ugm-3
02-01-2007,05:00,72,R,ugm-3
02-01-2007,06:00,70,R,ugm-3
02-01-2007,07:00,68,R,ugm-3
02-01-2007,08:00,68,R,ugm-3
02-01-2007,09:00,68,R,ugm-3
02-01-2007,10:00,66,R,ugm-3
02-01-2007,11:00,70,R,ugm-3
02-01-2007,12:00,70,R,ugm-3
02-01-2007,13:00,70,R,ugm-3
02-01-2007,14:00,70,R,ugm-3
02-01-2007,15:00,70,R,ugm-3
02-01-2007,16:00,70,R,ugm-3
02-01-2007,17:00,68,R,ugm-3
02-01-2007,18:00,66,R,ugm-3
02-01-2007,19:00,66,R,ugm-3
02-01-2007,20:00,66,R,ugm-3
02-01-2007,21:00,68,R,ugm-3
02-01-2007,22:00,70,R,ugm-3
02-01-2007,23:00,68,R,ugm-3
02-01-2007,24:00,70,R,ugm-3
03-01-2007,01:00,70,R,ugm-3
03-01-2007,02:00,70,R,ugm-3
03-01-2007,03:00,66,R,ugm-3
03-01-2007,04:00,68,R,ugm-3
03-01-2007,05:00,72,R,ugm-3
03-01-2007,06:00,72,R,ugm-3
03-01-2007,07:00,72,R,ugm-3
03-01-2007,08:00,74,R,ugm-3
03-01-2007,09:00,66,R,ugm-3
03-01-2007,10:00,60,R,ugm-3
03-01-2007,11:00,60,R,ugm-3
03-01-2007,12:00,58,R,ugm-3
03-01-2007,13:00,58,R,ugm-3
03-01-2007,14:00,60,R,ugm-3
03-01-2007,15:00,60,R,ugm-3
03-01-2007,16:00,62,R,ugm-3
03-01-2007,17:00,62,R,ugm-3
03-01-2007,18:00,62,R,ugm-3
03-01-2007,19:00,70,R,ugm-3
03-01-2007,20:00,84,R,ugm-3
03-01-2007,21:00,88,R,ugm-3
03-01-2007,22:00,84,R,ugm-3
03-01-2007,23:00,82,R,ugm-3
03-01-2007,24:00,78,R,ugm-3
04-01-2007,01:00,74,R,ugm-3
04-01-2007,02:00,74,R,ugm-3
04-01-2007,03:00,76,R,ugm-3
04-01-2007,04:00,76,R,ugm-3
04-01-2007,05:00,82,R,ugm-3
04-01-2007,06:00,82,R,ugm-3
04-01-2007,07:00,78,R,ugm-3
04-01-2007,08:00,76,R,ugm-3
04-01-2007,09:00,78,R,ugm-3
04-01-2007,10:00,80,R,ugm-3
04-01-2007,11:00,80,R,ugm-3
04-01-2007,12:00,80,R,ugm-3
04-01-2007,13:00,78,R,ugm-3
04-01-2007,14:00,70,R,ugm-3
04-01-2007,15:00,72,R,ugm-3
04-01-2007,16:00,72,R,ugm-3
04-01-2007,17:00,74,R,ugm-3
04-01-2007,18:00,74,R,ugm-3
04-01-2007,19:00,74,R,ugm-3
04-01-2007,20:00,70,R,ugm-3
04-01-2007,21:00,72,R,ugm-3
04-01-2007,22:00,66,R,ugm-3
04-01-2007,23:00,66,R,ugm-3
04-01-2007,24:00,60,R,ugm-3
05-01-2007,01:00,58,R,ugm-3
05-01-2007,02:00,58,R,ugm-3
05-01-2007,03:00,58,R,ugm-3
05-01-2007,04:00,60,R,ugm-3
05-01-2007,05:00,70,R,ugm-3
05-01-2007,06:00,72,R,ugm-3
05-01-2007,07:00,74,R,ugm-3
05-01-2007,08:00,72,R,ugm-3
05-01-2007,09:00,72,R,ugm-3
05-01-2007,10:00,68,R,ugm-3
05-01-2007,11:00,76,R,ugm-3
05-01-2007,12:00,72,R,ugm-3
05-01-2007,13:00,72,R,ugm-3
05-01-2007,14:00,70,R,ugm-3
05-01-2007,15:00,68,R,ugm-3
05-01-2007,16:00,68,R,ugm-3
05-01-2007,17:00,72,R,ugm-3
05-01-2007,18:00,72,R,ugm-3
05-01-2007,19:00,74,R,ugm-3
05-01-2007,20:00,74,R,ugm-3
05-01-2007,21:00,74,R,ugm-3
05-01-2007,22:00,76,R,ugm-3
05-01-2007,23:00,76,R,ugm-3
05-01-2007,24:00,74,R,ugm-3
06-01-2007,01:00,72,R,ugm-3
06-01-2007,02:00,74,R,ugm-3
06-01-2007,03:00,74,R,ugm-3
06-01-2007,04:00,74,R,ugm-3
06-01-2007,05:00,74,R,ugm-3
06-01-2007,06:00,72,R,ugm-3
06-01-2007,07:00,72,R,ugm-3
06-01-2007,08:00,74,R,ugm-3
06-01-2007,09:00,76,R,ugm-3
06-01-2007,10:00,76,R,ugm-3
06-01-2007,11:00,76,R,ugm-3
06-01-2007,12:00,76,R,ugm-3
06-01-2007,13:00,80,R,ugm-3
06-01-2007,14:00,78,R,ugm-3
06-01-2007,15:00,76,R,ugm-3
06-01-2007,16:00,74,R,ugm-3
06-01-2007,17:00,74,R,ugm-3
06-01-2007,18:00,74,R,ugm-3
06-01-2007,19:00,74,R,ugm-3
06-01-2007,20:00,70,R,ugm-3
06-01-2007,21:00,68,R,ugm-3
06-01-2007,22:00,72,R,ugm-3
06-01-2007,23:00,72,R,ugm-3
06-01-2007,24:00,72,R,ugm-3
07-01-2007,01:00,70,R,ugm-3
07-01-2007,02:00,70,R,ugm-3
07-01-2007,03:00,70,R,ugm-3
07-01-2007,04:00,70,R,ugm-3
07-01-2007,05:00,64,R,ugm-3
07-01-2007,06:00,72,R,ugm-3
07-01-2007,07:00,74,R,ugm-3
07-01-2007,08:00,68,R,ugm-3
07-01-2007,09:00,72,R,ugm-3
07-01-2007,10:00,78,R,ugm-3
07-01-2007,11:00,76,R,ugm-3
07-01-2007,12:00,74,R,ugm-3
07-01-2007,13:00,74,R,ugm-3
07-01-2007,14:00,74,R,ugm-3
07-01-2007,15:00,72,R,ugm-3
07-01-2007,16:00,74,R,ugm-3
07-01-2007,17:00,74,R,ugm-3
07-01-2007,18:00,74,R,ugm-3
07-01-2007,19:00,72,R,ugm-3
07-01-2007,20:00,74,R,ugm-3
07-01-2007,21:00,72,R,ugm-3
07-01-2007,22:00,70,R,ugm-3
07-01-2007,23:00,72,R,ugm-3
07-01-2007,24:00,70,R,ugm-3
08-01-2007,01:00,68,R,ugm-3
08-01-2007,02:00,78,R,ugm-3
08-01-2007,03:00,78,R,ugm-3
08-01-2007,04:00,78,R,ugm-3
08-01-2007,05:00,78,R,ugm-3
08-01-2007,06:00,76,R,ugm-3
08-01-2007,07:00,78,R,ugm-3
08-01-2007,08:00,80,R,ugm-3
08-01-2007,09:00,80,R,ugm-3
08-01-2007,10:00,78,R,ugm-3
08-01-2007,11:00,80,R,ugm-3
08-01-2007,12:00,78,R,ugm-3
08-01-2007,13:00,76,R,ugm-3
08-01-2007,14:00,74,R,ugm-3
08-01-2007,15:00,72,R,ugm-3
08-01-2007,16:00,70,R,ugm-3
08-01-2007,17:00,70,R,ugm-3
08-01-2007,18:00,70,R,ugm-3
08-01-2007,19:00,70,R,ugm-3
08-01-2007,20:00,68,R,ugm-3
08-01-2007,21:00,70,R,ugm-3
08-01-2007,22:00,66,R,ugm-3
08-01-2007,23:00,60,R,ugm-3
08-01-2007,24:00,64,R,ugm-3
09-01-2007,01:00,66,R,ugm-3
09-01-2007,02:00,54,R,ugm-3
09-01-2007,03:00,52,R,ugm-3
09-01-2007,04:00,54,R,ugm-3
09-01-2007,05:00,56,R,ugm-3
09-01-2007,06:00,64,R,ugm-3
09-01-2007,07:00,76,R,ugm-3
09-01-2007,08:00,82,R,ugm-3
09-01-2007,09:00,78,R,ugm-3
09-01-2007,10:00,76,R,ugm-3
09-01-2007,11:00,74,R,ugm-3
09-01-2007,12:00,74,R,ugm-3
09-01-2007,13:00,82,R,ugm-3
09-01-2007,14:00,68,R,ugm-3
09-01-2007,15:00,80,R,ugm-3
09-01-2007,16:00,78,R,ugm-3
09-01-2007,17:00,76,R,ugm-3
09-01-2007,18:00,74,R,ugm-3
09-01-2007,19:00,72,R,ugm-3
09-01-2007,20:00,70,R,ugm-3
09-01-2007,21:00,68,R,ugm-3
09-01-2007,22:00,62,R,ugm-3
09-01-2007,23:00,60,R,ugm-3
09-01-2007,24:00,60,R,ugm-3
10-01-2007,01:00,56,R,ugm-3
10-01-2007,02:00,56,R,ugm-3
10-01-2007,03:00,56,R,ugm-3
10-01-2007,04:00,62,R,ugm-3
10-01-2007,05:00,66,R,ugm-3
10-01-2007,06:00,70,R,ugm-3
10-01-2007,07:00,68,R,ugm-3
10-01-2007,08:00,70,R,ugm-3
10-01-2007,09:00,68,R,ugm-3
10-01-2007,10:00,68,R,ugm-3
10-01-2007,11:00,64,R,ugm-3
10-01-2007,12:00,62,R,ugm-3
10-01-2007,13:00,66,R,ugm-3
10-01-2007,14:00,68,R,ugm-3
10-01-2007,15:00,62,R,ugm-3
10-01-2007,16:00,50,R,ugm-3
10-01-2007,17:00,50,R,ugm-3
10-01-2007,18:00,58,R,ugm-3
10-01-2007,19:00,60,R,ugm-3
10-01-2007,20:00,68,R,ugm-3
10-01-2007,21:00,72,R,ugm-3
10-01-2007,22:00,74,R,ugm-3
10-01-2007,23:00,74,R,ugm-3
10-01-2007,24:00,72,R,ugm-3
11-01-2007,01:00,66,R,ugm-3
11-01-2007,02:00,,,
11-01-2007,03:00,,,
11-01-2007,04:00,,,
11-01-2007,05:00,,,
11-01-2007,06:00,,,
11-01-2007,07:00,,,
11-01-2007,08:00,,,
11-01-2007,09:00,,,
11-01-2007,10:00,,,
11-01-2007,11:00,,,
11-01-2007,12:00,,,
11-01-2007,13:00,,,
11-01-2007,14:00,,,
11-01-2007,15:00,,,
11-01-2007,16:00,,,
11-01-2007,17:00,,,
11-01-2007,18:00,,,
11-01-2007,19:00,,,
11-01-2007,20:00,,,
11-01-2007,21:00,,,
11-01-2007,22:00,,,
11-01-2007,23:00,,,
11-01-2007,24:00,,,
12-01-2007,01:00,,,
12-01-2007,02:00,,,
12-01-2007,03:00,,,
12-01-2007,04:00,,,
12-01-2007,05:00,,,
12-01-2007,06:00,,,
12-01-2007,07:00,,,
12-01-2007,08:00,,,
12-01-2007,09:00,,,
12-01-2007,10:00,,,
12-01-2007,11:00,,,
12-01-2007,12:00,,,
12-01-2007,13:00,,,
12-01-2007,14:00,,,
12-01-2007,15:00,,,
12-01-2007,16:00,,,
12-01-2007,17:00,,,
12-01-2007,18:00,,,
12-01-2007,19:00,,,
12-01-2007,20:00,,,
12-01-2007,21:00,,,
12-01-2007,22:00,,,
12-01-2007,23:00,,,
12-01-2007,24:00,,,
13-01-2007,01:00,,,
13-01-2007,02:00,,,
13-01-2007,03:00,,,
13-01-2007,04:00,,,
13-01-2007,05:00,,,
13-01-2007,06:00,,,
13-01-2007,07:00,,,
13-01-2007,08:00,,,
13-01-2007,09:00,,,
13-01-2007,10:00,,,
13-01-2007,11:00,,,
13-01-2007,12:00,,,
13-01-2007,13:00,,,
13-01-2007,14:00,,,
13-01-2007,15:00,,,
13-01-2007,16:00,,,
13-01-2007,17:00,,,
13-01-2007,18:00,,,
13-01-2007,19:00,,,
13-01-2007,20:00,,,
13-01-2007,21:00,,,
13-01-2007,22:00,,,
13-01-2007,23:00,,,
13-01-2007,24:00,,,
14-01-2007,01:00,,,
14-01-2007,02:00,,,
14-01-2007,03:00,,,
14-01-2007,04:00,,,
14-01-2007,05:00,,,
14-01-2007,06:00,,,
14-01-2007,07:00,,,
14-01-2007,08:00,,,
14-01-2007,09:00,,,
14-01-2007,10:00,,,
14-01-2007,11:00,,,
14-01-2007,12:00,,,
14-01-2007,13:00,,,
14-01-2007,14:00,,,
14-01-2007,15:00,,,
14-01-2007,16:00,,,
14-01-2007,17:00,,,
14-01-2007,18:00,,,
14-01-2007,19:00,,,
14-01-2007,20:00,,,
14-01-2007,21:00,,,
14-01-2007,22:00,,,
14-01-2007,23:00,,,
14-01-2007,24:00,,,
15-01-2007,01:00,,,
15-01-2007,02:00,,,
15-01-2007,03:00,,,
15-01-2007,04:00,,,
15-01-2007,05:00,,,
15-01-2007,06:00,,,
15-01-2007,07:00,,,
15-01-2007,08:00,,,
15-01-2007,09:00,,,
15-01-2007,10:00,,,
15-01-2007,11:00,,,
15-01-2007,12:00,,,
15-01-2007,13:00,,,
15-01-2007,14:00,,,
15-01-2007,15:00,,,
15-01-2007,16:00,,,
15-01-2007,17:00,,,
15-01-2007,18:00,,,
15-01-2007,19:00,,,
15-01-2007,20:00,,,
15-01-2007,21:00,,,
15-01-2007,22:00,,,
15-01-2007,23:00,,,
15-01-2007,24:00,,,
16-01-2007,01:00,,,
16-01-2007,02:00,,,
16-01-2007,03:00,,,
16-01-2007,04:00,,,
16-01-2007,05:00,,,
16-01-2007,06:00,,,
16-01-2007,07:00,,,
16-01-2007,08:00,,,
16-01-2007,09:00,,,
16-01-2007,10:00,,,
16-01-2007,11:00,,,
16-01-2007,12:00,,,
16-01-2007,13:00,,,
16-01-2007,14:00,,,
16-01-2007,15:00,,,
16-01-2007,16:00,,,
16-01-2007,17:00,,,
16-01-2007,18:00,,,
16-01-2007,19:00,,,
16-01-2007,20:00,,,
16-01-2007,21:00,,,
16-01-2007,22:00,,,
16-01-2007,23:00,,,
16-01-2007,24:00,,,
17-01-2007,01:00,,,
17-01-2007,02:00,,,
17-01-2007,03:00,,,
17-01-2007,04:00,,,
17-01-2007,05:00,,,
17-01-2007,06:00,,,
17-01-2007,07:00,,,
17-01-2007,08:00,,,
17-01-2007,09:00,,,
17-01-2007,10:00,,,
17-01-2007,11:00,,,
17-01-2007,12:00,,,
17-01-2007,13:00,,,
17-01-2007,14:00,,,
17-01-2007,15:00,,,
17-01-2007,16:00,,,
17-01-2007,17:00,,,
17-01-2007,18:00,,,
17-01-2007,19:00,,,
17-01-2007,20:00,,,
17-01-2007,21:00,,,
17-01-2007,22:00,,,
17-01-2007,23:00,,,
17-01-2007,24:00,,,
18-01-2007,01:00,,,
18-01-2007,02:00,,,
18-01-2007,03:00,,,
18-01-2007,04:00,,,
18-01-2007,05:00,,,
18-01-2007,06:00,,,
18-01-2007,07:00,,,
18-01-2007,08:00,,,
18-01-2007,09:00,,,
18-01-2007,10:00,,,
18-01-2007,11:00,,,
18-01-2007,12:00,,,
18-01-2007,13:00,,,
18-01-2007,14:00,,,
18-01-2007,15:00,,,
18-01-2007,16:00,,,
18-01-2007,17:00,,,
18-01-2007,18:00,,,
18-01-2007,19:00,,,
18-01-2007,20:00,,,
18-01-2007,21:00,,,
18-01-2007,22:00,,,
18-01-2007,23:00,,,
18-01-2007,24:00,,,
19-01-2007,01:00,,,
19-01-2007,02:00,,,
19-01-2007,03:00,,,
19-01-2007,04:00,,,
19-01-2007,05:00,,,
19-01-2007,06:00,,,
19-01-2007,07:00,,,
19-01-2007,08:00,,,
19-01-2007,09:00,,,
19-01-2007,10:00,,,
19-01-2007,11:00,,,
19-01-2007,12:00,,,
19-01-2007,13:00,,,
19-01-2007,14:00,,,
19-01-2007,15:00,,,
19-01-2007,16:00,,,
19-01-2007,17:00,,,
19-01-2007,18:00,,,
19-01-2007,19:00,,,
19-01-2007,20:00,,,
19-01-2007,21:00,,,
19-01-2007,22:00,,,
19-01-2007,23:00,,,
19-01-2007,24:00,,,
20-01-2007,01:00,,,
20-01-2007,02:00,,,
20-01-2007,03:00,,,
20-01-2007,04:00,,,
20-01-2007,05:00,,,
20-01-2007,06:00,,,
20-01-2007,07:00,,,
20-01-2007,08:00,,,
20-01-2007,09:00,,,
20-01-2007,10:00,,,
20-01-2007,11:00,,,
20-01-2007,12:00,,,
20-01-2007,13:00,,,
20-01-2007,14:00,,,
20-01-2007,15:00,,,
20-01-2007,16:00,,,
20-01-2007,17:00,,,
20-01-2007,18:00,,,
20-01-2007,19:00,,,
20-01-2007,20:00,,,
20-01-2007,21:00,,,
20-01-2007,22:00,,,
20-01-2007,23:00,,,
20-01-2007,24:00,,,
21-01-2007,01:00,,,
21-01-2007,02:00,,,
21-01-2007,03:00,,,
21-01-2007,04:00,,,
21-01-2007,05:00,,,
21-01-2007,06:00,,,
21-01-2007,07:00,,,
21-01-2007,08:00,,,
21-01-2007,09:00,,,
21-01-2007,10:00,,,
21-01-2007,11:00,,,
21-01-2007,12:00,,,
21-01-2007,13:00,,,
21-01-2007,14:00,,,
21-01-2007,15:00,,,
21-01-2007,16:00,,,
21-01-2007,17:00,,,
21-01-2007,18:00,,,
21-01-2007,19:00,,,
21-01-2007,20:00,,,
21-01-2007,21:00,,,
21-01-2007,22:00,,,
21-01-2007,23:00,,,
21-01-2007,24:00,,,
22-01-2007,01:00,,,
22-01-2007,02:00,,,
22-01-2007,03:00,,,
22-01-2007,04:00,,,
22-01-2007,05:00,,,
22-01-2007,06:00,,,
22-01-2007,07:00,,,
22-01-2007,08:00,,,
22-01-2007,09:00,,,
22-01-2007,10:00,,,
22-01-2007,11:00,,,
22-01-2007,12:00,,,
22-01-2007,13:00,,,
22-01-2007,14:00,,,
22-01-2007,15:00,,,
22-01-2007,16:00,,,
22-01-2007,17:00,,,
22-01-2007,18:00,,,
22-01-2007,19:00,,,
22-01-2007,20:00,,,
22-01-2007,21:00,,,
22-01-2007,22:00,,,
22-01-2007,23:00,,,
22-01-2007,24:00,,,
23-01-2007,01:00,,,
23-01-2007,02:00,,,
23-01-2007,03:00,,,
23-01-2007,04:00,,,
23-01-2007,05:00,,,
23-01-2007,06:00,,,
23-01-2007,07:00,,,
23-01-2007,08:00,,,
23-01-2007,09:00,,,
23-01-2007,10:00,,,
23-01-2007,11:00,,,
23-01-2007,12:00,,,
23-01-2007,13:00,,,
23-01-2007,14:00,,,
23-01-2007,15:00,,,
23-01-2007,16:00,,,
23-01-2007,17:00,,,
23-01-2007,18:00,,,
23-01-2007,19:00,,,
23-01-2007,20:00,,,
23-01-2007,21:00,,,
23-01-2007,22:00,,,
23-01-2007,23:00,,,
23-01-2007,24:00,,,
24-01-2007,01:00,,,
24-01-2007,02:00,,,
24-01-2007,03:00,,,
24-01-2007,04:00,,,
24-01-2007,05:00,,,
24-01-2007,06:00,,,
24-01-2007,07:00,,,
24-01-2007,08:00,,,
24-01-2007,09:00,,,
24-01-2007,10:00,,,
24-01-2007,11:00,,,
24-01-2007,12:00,,,
24-01-2007,13:00,,,
24-01-2007,14:00,,,
24-01-2007,15:00,,,
24-01-2007,16:00,,,
24-01-2007,17:00,,,
24-01-2007,18:00,,,
24-01-2007,19:00,,,
24-01-2007,20:00,,,
24-01-2007,21:00,,,
24-01-2007,22:00,38,R,ugm-3
24-01-2007,23:00,38,R,ugm-3
24-01-2007,24:00,46,R,ugm-3
25-01-2007,01:00,50,R,ugm-3
25-01-2007,02:00,50,R,ugm-3
25-01-2007,03:00,50,R,ugm-3
25-01-2007,04:00,58,R,ugm-3
25-01-2007,05:00,60,R,ugm-3
25-01-2007,06:00,62,R,ugm-3
25-01-2007,07:00,64,R,ugm-3
25-01-2007,08:00,64,R,ugm-3
25-01-2007,09:00,62,R,ugm-3
25-01-2007,10:00,62,R,ugm-3
25-01-2007,11:00,60,R,ugm-3
25-01-2007,12:00,60,R,ugm-3
25-01-2007,13:00,58,R,ugm-3
25-01-2007,14:00,58,R,ugm-3
25-01-2007,15:00,58,R,ugm-3
25-01-2007,16:00,62,R,ugm-3
25-01-2007,17:00,64,R,ugm-3
25-01-2007,18:00,62,R,ugm-3
25-01-2007,19:00,64,R,ugm-3
25-01-2007,20:00,64,R,ugm-3
25-01-2007,21:00,64,R,ugm-3
25-01-2007,22:00,66,R,ugm-3
25-01-2007,23:00,62,R,ugm-3
25-01-2007,24:00,64,R,ugm-3
26-01-2007,01:00,62,R,ugm-3
26-01-2007,02:00,66,R,ugm-3
26-01-2007,03:00,62,R,ugm-3
26-01-2007,04:00,66,R,ugm-3
26-01-2007,05:00,64,R,ugm-3
26-01-2007,06:00,66,R,ugm-3
26-01-2007,07:00,64,R,ugm-3
26-01-2007,08:00,64,R,ugm-3
26-01-2007,09:00,64,R,ugm-3
26-01-2007,10:00,62,R,ugm-3
26-01-2007,11:00,58,R,ugm-3
26-01-2007,12:00,60,R,ugm-3
26-01-2007,13:00,62,R,ugm-3
26-01-2007,14:00,58,R,ugm-3
26-01-2007,15:00,58,R,ugm-3
26-01-2007,16:00,60,R,ugm-3
26-01-2007,17:00,60,R,ugm-3
26-01-2007,18:00,60,R,ugm-3
26-01-2007,19:00,60,R,ugm-3
26-01-2007,20:00,62,R,ugm-3
26-01-2007,21:00,62,R,ugm-3
26-01-2007,22:00,62,R,ugm-3
26-01-2007,23:00,62,R,ugm-3
26-01-2007,24:00,66,R,ugm-3
27-01-2007,01:00,64,R,ugm-3
27-01-2007,02:00,66,R,ugm-3
27-01-2007,03:00,68,R,ugm-3
27-01-2007,04:00,68,R,ugm-3
27-01-2007,05:00,68,R,ugm-3
27-01-2007,06:00,66,R,ugm-3
27-01-2007,07:00,66,R,ugm-3
27-01-2007,08:00,64,R,ugm-3
27-01-2007,09:00,64,R,ugm-3
27-01-2007,10:00,54,R,ugm-3
27-01-2007,11:00,58,R,ugm-3
27-01-2007,12:00,60,R,ugm-3
27-01-2007,13:00,62,R,ugm-3
27-01-2007,14:00,62,R,ugm-3
27-01-2007,15:00,70,R,ugm-3
27-01-2007,16:00,70,R,ugm-3
27-01-2007,17:00,74,R,ugm-3
27-01-2007,18:00,74,R,ugm-3
27-01-2007,19:00,76,R,ugm-3
27-01-2007,20:00,76,R,ugm-3
27-01-2007,21:00,74,R,ugm-3
27-01-2007,22:00,74,R,ugm-3
27-01-2007,23:00,72,R,ugm-3
27-01-2007,24:00,70,R,ugm-3
28-01-2007,01:00,76,R,ugm-3
28-01-2007,02:00,74,R,ugm-3
28-01-2007,03:00,76,R,ugm-3
28-01-2007,04:00,76,R,ugm-3
28-01-2007,05:00,78,R,ugm-3
28-01-2007,06:00,76,R,ugm-3
28-01-2007,07:00,76,R,ugm-3
28-01-2007,08:00,74,R,ugm-3
28-01-2007,09:00,74,R,ugm-3
28-01-2007,10:00,72,R,ugm-3
28-01-2007,11:00,70,R,ugm-3
28-01-2007,12:00,70,R,ugm-3
28-01-2007,13:00,68,R,ugm-3
28-01-2007,14:00,70,R,ugm-3
28-01-2007,15:00,70,R,ugm-3
28-01-2007,16:00,74,R,ugm-3
28-01-2007,17:00,70,R,ugm-3
28-01-2007,18:00,72,R,ugm-3
28-01-2007,19:00,74,R,ugm-3
28-01-2007,20:00,76,R,ugm-3
28-01-2007,21:00,74,R,ugm-3
28-01-2007,22:00,74,R,ugm-3
28-01-2007,23:00,72,R,ugm-3
28-01-2007,24:00,72,R,ugm-3
29-01-2007,01:00,70,R,ugm-3
29-01-2007,02:00,64,R,ugm-3
29-01-2007,03:00,64,R,ugm-3
29-01-2007,04:00,64,R,ugm-3
29-01-2007,05:00,64,R,ugm-3
29-01-2007,06:00,58,R,ugm-3
29-01-2007,07:00,60,R,ugm-3
29-01-2007,08:00,66,R,ugm-3
29-01-2007,09:00,68,R,ugm-3
29-01-2007,10:00,74,R,ugm-3
29-01-2007,11:00,72,R,ugm-3
29-01-2007,12:00,72,R,ugm-3
29-01-2007,13:00,72,R,ugm-3
29-01-2007,14:00,72,R,ugm-3
29-01-2007,15:00,74,R,ugm-3
29-01-2007,16:00,74,R,ugm-3
29-01-2007,17:00,72,R,ugm-3
29-01-2007,18:00,72,R,ugm-3
29-01-2007,19:00,72,R,ugm-3
29-01-2007,20:00,72,R,ugm-3
29-01-2007,21:00,72,R,ugm-3
29-01-2007,22:00,74,R,ugm-3
29-01-2007,23:00,76,R,ugm-3
29-01-2007,24:00,76,R,ugm-3
30-01-2007,01:00,76,R,ugm-3
30-01-2007,02:00,74,R,ugm-3
30-01-2007,03:00,76,R,ugm-3
30-01-2007,04:00,76,R,ugm-3
30-01-2007,05:00,76,R,ugm-3
30-01-2007,06:00,76,R,ugm-3
30-01-2007,07:00,76,R,ugm-3
30-01-2007,08:00,78,R,ugm-3
30-01-2007,09:00,74,R,ugm-3
30-01-2007,10:00,76,R,ugm-3
30-01-2007,11:00,74,R,ugm-3
30-01-2007,12:00,74,R,ugm-3
30-01-2007,13:00,74,R,ugm-3
30-01-2007,14:00,74,R,ugm-3
30-01-2007,15:00,76,R,ugm-3
30-01-2007,16:00,,,
30-01-2007,17:00,74,R,ugm-3
30-01-2007,18:00,78,R,ugm-3
30-01-2007,19:00,78,R,ugm-3
30-01-2007,20:00,80,R,ugm-3
30-01-2007,21:00,80,R,ugm-3
30-01-2007,22:00,80,R,ugm-3
30-01-2007,23:00,80,R,ugm-3
30-01-2007,24:00,78,R,ugm-3
31-01-2007,01:00,80,R,ugm-3
31-01-2007,02:00,76,R,ugm-3
31-01-2007,03:00,78,R,ugm-3
31-01-2007,04:00,80,R,ugm-3
31-01-2007,05:00,82,R,ugm-3
31-01-2007,06:00,78,R,ugm-3
31-01-2007,07:00,78,R,ugm-3
31-01-2007,08:00,78,R,ugm-3
31-01-2007,09:00,76,R,ugm-3
31-01-2007,10:00,74,R,ugm-3
31-01-2007,11:00,70,R,ugm-3
31-01-2007,12:00,68,R,ugm-3
31-01-2007,13:00,70,R,ugm-3
31-01-2007,14:00,70,R,ugm-3
31-01-2007,15:00,70,R,ugm-3
31-01-2007,16:00,66,R,ugm-3
31-01-2007,17:00,70,R,ugm-3
31-01-2007,18:00,70,R,ugm-3
31-01-2007,19:00,62,R,ugm-3
31-01-2007,20:00,70,R,ugm-3
31-01-2007,21:00,74,R,ugm-3
31-01-2007,22:00,76,R,ugm-3
31-01-2007,23:00,80,R,ugm-3
31-01-2007,24:00,78,R,ugm-3
01-02-2007,01:00,76,R,ugm-3
01-02-2007,02:00,76,R,ugm-3
01-02-2007,03:00,78,R,ugm-3
01-02-2007,04:00,78,R,ugm-3
01-02-2007,05:00,76,R,ugm-3
01-02-2007,06:00,76,R,ugm-3
01-02-2007,07:00,76,R,ugm-3
01-02-2007,08:00,78,R,ugm-3
01-02-2007,09:00,74,R,ugm-3
01-02-2007,10:00,74,R,ugm-3
01-02-2007,11:00,74,R,ugm-3
01-02-2007,12:00,74,R,ugm-3
01-02-2007,13:00,76,R,ugm-3
01-02-2007,14:00,76,R,ugm-3
01-02-2007,15:00,76,R,ugm-3
01-02-2007,16:00,76,R,ugm-3
01-02-2007,17:00,80,R,ugm-3
01-02-2007,18:00,78,R,ugm-3
01-02-2007,19:00,76,R,ugm-3
01-02-2007,20:00,78,R,ugm-3
01-02-2007,21:00,78,R,ugm-3
01-02-2007,22:00,78,R,ugm-3
01-02-2007,23:00,80,R,ugm-3
01-02-2007,24:00,80,R,ugm-3
02-02-2007,01:00,78,R,ugm-3
02-02-2007,02:00,80,R,ugm-3
02-02-2007,03:00,80,R,ugm-3
02-02-2007,04:00,78,R,ugm-3
02-02-2007,05:00,80,R,ugm-3
02-02-2007,06:00,78,R,ugm-3
02-02-2007,07:00,76,R,ugm-3
02-02-2007,08:00,74,R,ugm-3
02-02-2007,09:00,72,R,ugm-3
02-02-2007,10:00,70,R,ugm-3
02-02-2007,11:00,68,R,ugm-3
02-02-2007,12:00,68,R,ugm-3
02-02-2007,13:00,68,R,ugm-3
02-02-2007,14:00,68,R,ugm-3
02-02-2007,15:00,70,R,ugm-3
02-02-2007,16:00,68,R,ugm-3
02-02-2007,17:00,70,R,ugm-3
02-02-2007,18:00,70,R,ugm-3
02-02-2007,19:00,72,R,ugm-3
02-02-2007,20:00,72,R,ugm-3
02-02-2007,21:00,74,R,ugm-3
02-02-2007,22:00,76,R,ugm-3
02-02-2007,23:00,78,R,ugm-3
02-02-2007,24:00,78,R,ugm-3
03-02-2007,01:00,78,R,ugm-3
03-02-2007,02:00,80,R,ugm-3
03-02-2007,03:00,80,R,ugm-3
03-02-2007,04:00,80,R,ugm-3
03-02-2007,05:00,80,R,ugm-3
03-02-2007,06:00,78,R,ugm-3
03-02-2007,07:00,80,R,ugm-3
03-02-2007,08:00,80,R,ugm-3
03-02-2007,09:00,80,R,ugm-3
03-02-2007,10:00,78,R,ugm-3
03-02-2007,11:00,76,R,ugm-3
03-02-2007,12:00,74,R,ugm-3
03-02-2007,13:00,74,R,ugm-3
03-02-2007,14:00,78,R,ugm-3
03-02-2007,15:00,78,R,ugm-3
03-02-2007,16:00,78,R,ugm-3
03-02-2007,17:00,78,R,ugm-3
03-02-2007,18:00,78,R,ugm-3
03-02-2007,19:00,80,R,ugm-3
03-02-2007,20:00,80,R,ugm-3
03-02-2007,21:00,80,R,ugm-3
03-02-2007,22:00,80,R,ugm-3
03-02-2007,23:00,76,R,ugm-3
03-02-2007,24:00,76,R,ugm-3
04-02-2007,01:00,74,R,ugm-3
04-02-2007,02:00,76,R,ugm-3
04-02-2007,03:00,74,R,ugm-3
04-02-2007,04:00,74,R,ugm-3
04-02-2007,05:00,74,R,ugm-3
04-02-2007,06:00,74,R,ugm-3
04-02-2007,07:00,74,R,ugm-3
04-02-2007,08:00,74,R,ugm-3
04-02-2007,09:00,76,R,ugm-3
04-02-2007,10:00,76,R,ugm-3
04-02-2007,11:00,72,R,ugm-3
04-02-2007,12:00,72,R,ugm-3
04-02-2007,13:00,72,R,ugm-3
04-02-2007,14:00,72,R,ugm-3
04-02-2007,15:00,72,R,ugm-3
04-02-2007,16:00,72,R,ugm-3
04-02-2007,17:00,72,R,ugm-3
04-02-2007,18:00,74,R,ugm-3
04-02-2007,19:00,74,R,ugm-3
04-02-2007,20:00,74,R,ugm-3
04-02-2007,21:00,72,R,ugm-3
04-02-2007,22:00,74,R,ugm-3
04-02-2007,23:00,72,R,ugm-3
04-02-2007,24:00,68,R,ugm-3
05-02-2007,01:00,66,R,ugm-3
05-02-2007,02:00,68,R,ugm-3
05-02-2007,03:00,68,R,ugm-3
05-02-2007,04:00,68,R,ugm-3
05-02-2007,05:00,68,R,ugm-3
05-02-2007,06:00,68,R,ugm-3
05-02-2007,07:00,66,R,ugm-3
05-02-2007,08:00,66,R,ugm-3
05-02-2007,09:00,64,R,ugm-3
05-02-2007,10:00,64,R,ugm-3
05-02-2007,11:00,62,R,ugm-3
05-02-2007,12:00,64,R,ugm-3
05-02-2007,13:00,62,R,ugm-3
05-02-2007,14:00,62,R,ugm-3
05-02-2007,15:00,62,R,ugm-3
05-02-2007,16:00,64,R,ugm-3
05-02-2007,17:00,66,R,ugm-3
05-02-2007,18:00,64,R,ugm-3
05-02-2007,19:00,68,R,ugm-3
05-02-2007,20:00,68,R,ugm-3
05-02-2007,21:00,68,R,ugm-3
05-02-2007,22:00,68,R,ugm-3
05-02-2007,23:00,68,R,ugm-3
05-02-2007,24:00,70,R,ugm-3
06-02-2007,01:00,72,R,ugm-3
06-02-2007,02:00,72,R,ugm-3
06-02-2007,03:00,66,R,ugm-3
06-02-2007,04:00,76,R,ugm-3
06-02-2007,05:00,64,R,ugm-3
06-02-2007,06:00,66,R,ugm-3
06-02-2007,07:00,70,R,ugm-3
06-02-2007,08:00,52,R,ugm-3
06-02-2007,09:00,,,
06-02-2007,10:00,,,
06-02-2007,11:00,,,
06-02-2007,12:00,,,
06-02-2007,13:00,,,
06-02-2007,14:00,56,R,ugm-3
06-02-2007,15:00,52,R,ugm-3
06-02-2007,16:00,58,R,ugm-3
06-02-2007,17:00,52,R,ugm-3
06-02-2007,18:00,56,R,ugm-3
06-02-2007,19:00,54,R,ugm-3
06-02-2007,20:00,62,R,ugm-3
06-02-2007,21:00,64,R,ugm-3
06-02-2007,22:00,62,R,ugm-3
06-02-2007,23:00,66,R,ugm-3
06-02-2007,24:00,64,R,ugm-3
07-02-2007,01:00,66,R,ugm-3
07-02-2007,02:00,,,
07-02-2007,03:00,70,R,ugm-3
07-02-2007,04:00,70,R,ugm-3
07-02-2007,05:00,62,R,ugm-3
07-02-2007,06:00,62,R,ugm-3
07-02-2007,07:00,64,R,ugm-3
07-02-2007,08:00,66,R,ugm-3
07-02-2007,09:00,62,R,ugm-3
07-02-2007,10:00,56,R,ugm-3
07-02-2007,11:00,46,R,ugm-3
07-02-2007,12:00,60,R,ugm-3
07-02-2007,13:00,66,R,ugm-3
07-02-2007,14:00,68,R,ugm-3
07-02-2007,15:00,70,R,ugm-3
07-02-2007,16:00,72,R,ugm-3
07-02-2007,17:00,76,R,ugm-3
07-02-2007,18:00,74,R,ugm-3
07-02-2007,19:00,70,R,ugm-3
07-02-2007,20:00,74,R,ugm-3
07-02-2007,21:00,76,R,ugm-3
07-02-2007,22:00,76,R,ugm-3
07-02-2007,23:00,76,R,ugm-3
07-02-2007,24:00,78,R,ugm-3
08-02-2007,01:00,80,R,ugm-3
08-02-2007,02:00,74,R,ugm-3
08-02-2007,03:00,76,R,ugm-3
08-02-2007,04:00,74,R,ugm-3
08-02-2007,05:00,74,R,ugm-3
08-02-2007,06:00,72,R,ugm-3
08-02-2007,07:00,70,R,ugm-3
08-02-2007,08:00,70,R,ugm-3
08-02-2007,09:00,68,R,ugm-3
08-02-2007,10:00,68,R,ugm-3
08-02-2007,11:00,64,R,ugm-3
08-02-2007,12:00,62,R,ugm-3
08-02-2007,13:00,64,R,ugm-3
08-02-2007,14:00,66,R,ugm-3
08-02-2007,15:00,52,R,ugm-3
08-02-2007,16:00,64,R,ugm-3
08-02-2007,17:00,66,R,ugm-3
08-02-2007,18:00,38,R,ugm-3
08-02-2007,19:00,58,R,ugm-3
08-02-2007,20:00,66,R,ugm-3
08-02-2007,21:00,66,R,ugm-3
08-02-2007,22:00,68,R,ugm-3
08-02-2007,23:00,68,R,ugm-3
08-02-2007,24:00,66,R,ugm-3
09-02-2007,01:00,72,R,ugm-3
09-02-2007,02:00,74,R,ugm-3
09-02-2007,03:00,76,R,ugm-3
09-02-2007,04:00,78,R,ugm-3
09-02-2007,05:00,80,R,ugm-3
09-02-2007,06:00,80,R,ugm-3
09-02-2007,07:00,76,R,ugm-3
09-02-2007,08:00,76,R,ugm-3
09-02-2007,09:00,70,R,ugm-3
09-02-2007,10:00,66,R,ugm-3
09-02-2007,11:00,60,R,ugm-3